User: anonymous   Login
Location: Haulchin
(50.3172°N, 3.4360°E)
Time: 13:31:37
(UTC+00:00)
Language:

ADEOS II - Orbit

View from above orbital plane
View from above orbital plane
View from above satellite
View from above satellite

Ground track
Ground track

The orbit data is extracted from the following two-line orbital elements,

1 27597U 02056A   24196.14641953  .00000604  00000-0  25928-3 0  9997
2 27597  98.6925 142.7250 0001094  35.4304 324.6950 14.28408191124087
Epoch (UTC): 14 July 2024 03:30:50
Eccentricity: 0.0001094
inclination: 98.6925°
perigee height: 796 km
apogee height: 798 km
right ascension of ascending node: 142.7250°
argument of perigee: 35.4304°
revolutions per day: 14.28408191
mean anomaly at epoch: 324.6950°
orbit number at epoch: 12408

The dashed part of the orbit path shows where the satellite is in the earth's shadow,  

DLR